Regional Weather Roundup
Issued by NWS

Home | Current Version | Previous Version | Graphics & Text | Print | Product List | Glossary On
Versions: 1 2 3 4 5 6 7 8 9 10 11 12 13 14 15 16 17 18 19 20 21 22 23 24 25 26 27 28 29 30 31 32 33 34 35 36 37 38 39 40 41 42 43 44 45 46 47 48 49 50
000
ASUS45 KTFX 200719
RWRMT
MONTANA HOURLY WEATHER ROUNDUP
NATIONAL WEATHER SERVICE GREAT FALLS MT
119 AM MDT SUN APR 20 2014

NOTE: "FAIR" INDICATES FEW OR NO CLOUDS BELOW 12000 FEET WITH NO
SIGNIFICANT WEATHER AND/OR OBSTRUCTIONS TO VISIBILITY.

* THESE STATIONS ARE NOT UNDER NWS QUALITY CONTROL. THEY DO NOT
   REPORT WEATHER SUCH AS PRECIPITATION OR FOG.

MTZ001>007-043-200800-
WEST OF THE DIVIDE
CITY           SKY/WX    TMP DP  RH WIND       PRES   REMARKS
KALISPELL      CLOUDY    48  30  50 S14       29.96R
MISSOULA       CLOUDY    46  36  68 NW5       30.07R
BUTTE          MOCLDY    39  25  57 NW13      29.94R WCI  31
MULLAN PASS    N/A       30  28  92 SW10G26   29.99R WCI  21
* ESSEX        N/A       38  35  89 S3G8       N/A
* LINCOLN      N/A       34  22  61 E3G8       N/A
* LOOKOUT PASS N/A       38  31  76 SE13G24    N/A   WCI  30
* POLSON       N/A       43  29  58 S3G12      N/A
* SEELEY LAKE  N/A       46  29  52 W7G17      N/A
* THOMP F APT  PTCLDY    42  11  28 NW3        N/A
* YAAK HILL    N/A       43  38  83 E3         N/A
$$

MTZ008-052>055-200800-
SOUTHWEST MONTANA
CITY           SKY/WX    TMP DP  RH WIND       PRES   REMARKS
BOZEMAN        CLOUDY    45  25  45 E7        29.88R
DILLON         CLOUDY    46  16  30 SW10      29.91R
W YELLOWSTONE  N/A       29  22  75 W1         N/A
* THREE FORKS  CLOUDY    50  23  35 N/A        N/A
* BOULDER HILL N/A       43  15  32 S2         N/A
* MONIDA PASS  N/A       41  13  32 SE13       N/A
* RAYNOLDS PAS N/A       43  25  49 S9         N/A
* WHITEHALL    N/A       50  21  32 W3         N/A
* WISE RIVER   N/A       36  23  59 SW2G7      N/A
$$

MTZ009>010-012-014-046-048-049-054-200800-
EAST SLOPES AND CENTRAL MONTANA
CITY           SKY/WX    TMP DP  RH WIND       PRES   REMARKS
CUT BANK       PTCLDY    43  34  71 W36G44    29.86R
GREAT FALLS    PTCLDY    37  25  62 W10       29.80R WCI  30
HELENA         MOCLDY    52  21  30 W17       29.86R
MALMSTROM AFB  PTCLDY    41  25  53 S8        29.76F
* CONRAD       MOCLDY    34  27  76 N/A        N/A
* DEARBORN     N/A       41  25  53 S4         N/A
* MONARCH      N/A       38  15  39 S12        N/A   WCI  30
* PENDROY      N/A       48  23  37 NW22G29    N/A
* ROGERS PASS  N/A       43  19  38 SE6G15     N/A
* SAINT MARY   N/A       35  32  89 S7G16      N/A   WCI  29
* SWEET GRASS  N/A       43  22  43 W12        N/A
* WHITE SULPH  N/A       42  23  47 E7G14      N/A
$$

MTZ011-013-016-021-035-040-045-047-050-051-200800-
NORTH CENTRAL MONTANA
CITY           SKY/WX    TMP DP  RH WIND       PRES   REMARKS
HAVRE          CLOUDY    37  25  62 CALM      29.78F
LEWISTOWN      MOCLDY    41  21  45 SE9       29.82F
* CHINOOK      MOCLDY    43  21  42 E7        29.79F
* FORT BENTON  PTCLDY    43  19  38 W3        29.79S
* MALTA APT    PTCLDY    37  19  48 CALM      29.80F
* CHESTER      N/A       39  22  51 N3         N/A
* DENTON       N/A       37  22  55 SE1G6      N/A
* GEYSER       N/A       37  22  55 S11        N/A   WCI  29
* JUDITH GAP   N/A       45  21  38 S7         N/A
* LOMA         N/A       46  20  36 NE9        N/A
$$

MTZ017>020-022>027-061-062-200800-
NORTHEAST MONTANA
CITY           SKY/WX    TMP DP  RH WIND       PRES   REMARKS
GLASGOW        PTCLDY    39  28  65 E13       29.84S WCI  31
GLENDIVE       CLEAR     39  23  53 SW5       29.91F WCI  35
JORDAN         PTCLDY    36  28  73 CALM      29.84F
SIDNEY         PTCLDY    34  28  79 CALM      29.92S
WOLF POINT     PTCLDY    36  27  70 NE6       29.88S WCI  31
* BEAVER HILL  N/A       49  21  33 SE16       N/A
* CIRCLE       N/A       46  26  46 N/A        N/A
* LINDSAY DVD  N/A       43  21  42 E1         N/A
* NAVAJO       N/A       38  31  76 N/A        N/A
* SACO         N/A       36  26  67 NE3        N/A
$$

MTZ028>042-056>058-200800-
SOUTHCENTRAL AND SOUTHEAST MONTANA
CITY           SKY/WX    TMP DP  RH WIND       PRES   REMARKS
BAKER          PTCLDY    36  25  64 SE7       29.94F WCI  30
BILLINGS       CLEAR     50  28  43 S6        29.85F
LIVINGSTON     MOCLDY    57  21  25 SW17G26   29.85R
MILES CITY     CLEAR     45  25  45 S9        29.88S
* LAUREL APT   PTCLDY    46  27  48 SW5        N/A
* ROUNDUP APT  MOCLDY    52  21  30 N/A        N/A
* HYSHAM       N/A       56  20  24 SE8G16     N/A
* LAME DEER    N/A       52  24  34 SE8        N/A
* REED POINT   N/A       39  27  62 N/A        N/A
* ROSCOE HILL  N/A       54   6  14 N/A        N/A
$$

REGIONAL REPORTS...DAKOTAS
CITY           SKY/WX    TMP DP  RH WIND       PRES   REMARKS
WILLISTON      PTCLDY    32  28  85 CALM      29.92S
DICKINSON      CLEAR     34  23  64 S10       29.94R WCI  26
CROSBY         CLEAR     28  28 100 CALM      29.93S
TIOGA          CLEAR     28  28 100 E5        29.96S WCI  22
WATFORD CITY   CLEAR     36  28  73 CALM      29.91S
BISMARCK       CLEAR     37 N/A N/A E7        30.00R WCI  32
GRAND FORKS    CLEAR     32  30  92 W3        30.01S
FARGO          CLEAR     37  34  89 NE3       30.02S
BUFFALO SD     PTCLDY    45  28  51 SE10      29.89F
RAPID CITY     PTCLDY    46  28  50 S6        29.97F
$$

REGIONAL REPORTS...WYOMING/IDAHO/WASHINGTON
CITY           SKY/WX    TMP DP  RH WIND       PRES   REMARKS
GILLETTE       CLEAR     45  34  65 S10       29.94S
SHERIDAN       CLEAR     39  30  70 VRB6      29.91S WCI  35
CODY           PTCLDY    50  23  35 S10       29.93S
YELLOWSTONE LA PTCLDY    25  19  78 CALM      30.10R
SALMON         CLOUDY    52  25  35 N17       29.94R
MULLAN PASS    N/A       30  28  92 SW10G26   29.99S WCI  21
SAND POINT     MOCLDY    50  32  50 SW9       29.97R
SPOKANE        PTCLDY    45  34  65 SW21      30.02R
$$

REGIONAL REPORTS...ALBERTA
CITY           SKY/WX    TMP DP  RH WIND       PRES   REMARKS
CALGARY        MOCLDY    43  23  45 NW5       29.70R
LETHBRIDGE     CLOUDY    48  28  46 SW30G39   29.78R
MEDICINE HAT   CLEAR     41  28  60 SW6       29.75S
EDMONTON       CLOUDY    45  34  65 E10       29.71S
WATERTON GATE  N/A       45  23  42 SW7        N/A
CARDSTON       N/A       41  34  76 S15G24     N/A
MILK RIVER     N/A       45  30  56 W22G30     N/A
$$

REGIONAL REPORTS...SASKATCHEWAN
CITY           SKY/WX    TMP DP  RH WIND       PRES   REMARKS
SWIFT CURRENT  MOCLDY    32  30  92 SE12      29.81F WCI  23
REGINA         N/A       28  28 100 SE7       29.92S WCI  21
VAL MARIE      N/A       32  25  75 CALM       N/A
ASSINIBOIA     N/A       32  30  92 E10        N/A   WCI  24
CORONACH       N/A       34  32  92 E6         N/A   WCI  29

$$




USA.gov is the U.S. government's official web portal to all federal, state and local government web resources and services.